OBJECT W, 69000

Orbit data source: Space-Track

You're viewing an uncataloged RSO

Recently launched and/or uncataloged RSOs may have evolving metadata. Metadata may include the following, but is not limited to: Owner, Manufacturer, Bus, Motor, and Mission.

OBJECT W, 69000 is a satellite in SSO that was launched on Sun, 03 May 2026 UTC via an FALCON 9 launch vehicle from the Air Force Western Test Range (AFWTR). Unknown objects in Earth's orbit typically refer to objects detected orbiting the Earth but have not yet been identified or cataloged. These objects could be anything from previously untracked satellites, spent rocket stages, debris from satellite collisions, or even natural meteoroids temporarily captured by Earth's gravity.

Loading next visibility...
Identifier
69000, 2026-100W
Orbit
SSO
Country
Flag of TBDTBD
Related business
Manufacturer
NCKU
Mission
Operational Amateur Technology
Bus & Motor
CUBESAT 3U, Unknown motor
Mass
4 kg wet, 4 kg dry
Launch date (UTC)
2026-05-03 (5 months ago)
Launch vehicle
FALCON 9
Launch site
Air Force Western Test Range (AFWTR)
Object type
Unknown
Shape & HBR
Box, 0.2 m
Radar Cross Section
0.035 m², Medium (>0.1 m² and < 1m²)

Expand to show TLE details & history
Last TLE update: 12 hours ago

TLE from 12 hours ago
0 OBJECT W
1 69000U 26100W   26265.95129818  .00001308  00000-0  13268-3 0  9993
2 69000  97.7186 161.5726 0000860  61.2154 298.9151 14.92543162 21281
Epoch: 2026-09-22T22:49Z
TLE epoch observation values (Epoch: 2026-09-22T22:49:52.162Z)
Latitude
-0.0001°
Longitude
177.29586°
Altitude
592.763 km
Speed
7.564 km/s
True Right ascension
10h 46m 17s
True Declination
0° 00' 00"
Sunlit
Object was in daylight at epoch
Visualization orbit readout
Latitude
Unknown
Longitude
Unknown
Altitude
Unknown
Speed
Unknown
Apparent Right ascension
Unknown
Apparent Declination
Unknown
Sunlit
N/A
Visualization observer readout
Local Sidereal Time
04:08:15
Azimuth
Unknown
Elevation
Unknown
Doppler factor
Unknown
Orbital elements
Apogee altitude
587.624 km
Perigee altitude
586.426 km
Semi-major axis
6,965.162 km
Eccentricity
0.00009
Inclination
97.7186°
RAAN
161.5726°
Arg. of periapsis
61.2154°
True anomaly
298.90647°
Mean anomaly
298.9151°
Eccentric anomaly
298.91079°
Mean motion
3.73376 °/min
Orbital period
96.42 mins
BSTAR
0.00013268
Loading maneuver chart data...
Computing Atmospheric mass density...
Loading historical data...
Loading historical data...
Loading historical data...
Loading historical data...
Loading historical data...
Loading historical data...
Loading historical data...

Documentation

Showing up to 5 results
|